Weather History for Jackson, TN

Change the Weather History Date:

Saturday, February 2, 2013

  Actual Average Record
Temperature  
Mean Temperature 37 °F 39 °F  
Max Temperature 50 °F 50 °F 73 °F (1974)
Min Temperature 24 °F 29 °F -12 °F (1951)
Degree Days  
Heating Degree Days 28 26  
Month to date heating degree days 68 52  
Since 1 July heating degree days 2137 2301  
Cooling Degree Days 0 0  
Month to date cooling degree days 0 0  
Year to date cooling degree days 4 0  
Moisture  
Dew Point 26 °F    
Average Humidity 62    
Maximum Humidity 82    
Minimum Humidity 42    
Precipitation  
Precipitation 0.03 in 0.15 in 1.89 in (1956)
Month to date precipitation 0.04 0.30  
Year to date precipitation 8.33 4.37  
Snow  
Snow T in 0.10 in 1.90 in (2007)
Month to date snowfall 0.1 0.2  
Since 1 July snowfall 1.4 2.8  
Snow Depth T in    
Sea Level Pressure  
Sea Level Pressure 30.21 in    
Wind  
Wind Speed 6 mph (WSW)    
Max Wind Speed 15 mph    
Max Gust Speed 20 mph    
Visibility 10 miles    
Events      
T = Trace of Precipitation, MM = Missing Value Source: NWS Daily Summary

Daily Weather History Graph

Daily Weather History Graph

Search for Another Location

Airport:

Trip Planner

Search our weather history database for the weather conditions in past years. The results will help you decide how hot, cold, wet, or windy it might be!

Date:

Astronomy

Feb. 02, 2013 Rise Set
Actual Time 6:54 AM CST 5:24 PM CST
Civil Twilight 6:27 AM CST 5:51 PM CST
Nautical Twilight 5:57 AM CST 6:21 PM CST
Astronomical Twilight 5:27 AM CST 6:51 PM CST
Moon No Moon Rise 10:20 AM CST (2/2)
Length of Visible Light 11h 23m
Length of Day
10h 30m
Waning Gibbous, 59% of the Moon is Illuminated
Feb 2
Waning Gibbous
Feb 3
Last Quarter
Feb 10
New
Feb 17
First Quarter
Feb 25
Full

Hourly Weather History & Observations

Time (CST) Temp. Windchill Dew Point Humidity Pressure Visibility Wind Dir Wind Speed Gust Speed Precip Events Conditions
12:53 AM 25.0 °F - 17.1 °F 72% 30.32 in 10.0 mi Calm Calm - N/A   Clear
1:53 AM 24.1 °F 19.7 °F 18.0 °F 77% 30.30 in 10.0 mi East 3.5 mph - N/A   Clear
2:53 AM 28.0 °F - 16.0 °F 61% 30.29 in 10.0 mi Calm Calm - N/A   Overcast
3:53 AM 28.0 °F - 19.0 °F 69% 30.26 in 10.0 mi Calm Calm - N/A   Overcast
4:53 AM 28.0 °F 24.2 °F 19.9 °F 72% 30.26 in 9.0 mi NE 3.5 mph - 0.00 in   Overcast
6:53 AM 30.0 °F - 21.0 °F 69% 30.27 in 10.0 mi Calm Calm - 0.00 in   Overcast
7:53 AM 30.0 °F 24.1 °F 21.9 °F 72% 30.27 in 10.0 mi SSE 5.8 mph - 0.00 in   Overcast
8:53 AM 33.1 °F 26.9 °F 21.0 °F 61% 30.25 in 10.0 mi SSE 6.9 mph - 0.02 in   Clear
9:53 AM 39.0 °F 32.8 °F 25.0 °F 57% 30.22 in 10.0 mi SW 9.2 mph - N/A   Clear
10:53 AM 41.0 °F 36.4 °F 28.0 °F 60% 30.21 in 10.0 mi SW 6.9 mph - N/A   Mostly Cloudy
11:53 AM 45.0 °F 39.3 °F 28.9 °F 53% 30.18 in 10.0 mi West 11.5 mph - 0.01 in   Clear
12:53 PM 46.0 °F 40.2 °F 30.0 °F 54% 30.17 in 10.0 mi West 12.7 mph - N/A   Overcast
1:53 PM 46.9 °F - 30.0 °F 52% 30.14 in 10.0 mi West 8.1 mph - N/A   Partly Cloudy
2:53 PM 50.0 °F - 28.9 °F 44% 30.12 in 10.0 mi West 12.7 mph - N/A   Clear
3:53 PM 50.0 °F - 30.9 °F 48% 30.14 in 10.0 mi WNW 11.5 mph - N/A   Clear
4:53 PM 46.9 °F - 30.9 °F 54% 30.15 in 10.0 mi West 11.5 mph - N/A   Clear
5:53 PM 41.0 °F 38.0 °F 28.9 °F 62% 30.16 in 10.0 mi NW 4.6 mph - N/A   Clear
6:53 PM 37.0 °F - 28.9 °F 73% 30.18 in 10.0 mi Calm Calm - N/A   Clear
7:53 PM 34.0 °F 28.8 °F 28.0 °F 79% 30.18 in 10.0 mi SSW 5.8 mph - N/A   Clear
8:53 PM 35.1 °F 29.3 °F 28.9 °F 78% 30.18 in 10.0 mi SSW 6.9 mph - N/A   Mostly Cloudy
9:53 PM 35.1 °F 28.6 °F 28.9 °F 78% 30.17 in 10.0 mi SW 8.1 mph - N/A   Clear
10:53 PM 37.9 °F 31.5 °F 30.9 °F 76% 30.17 in 10.0 mi SW 9.2 mph - N/A   Clear
11:53 PM 36.0 °F 31.1 °F 30.0 °F 79% 30.16 in 10.0 mi SW 5.8 mph - N/A   Clear